Dobrodošli na spletni strani vremenske postaje Senovo. Vse informacije so informativnega značaja, saj vremenska postaja ni del državne mreže meteoroloških postaj. AKTUALNIH OBVESTIL NI.


Sneg/Led Od: 22-02-2018 00:00 Do: 23-02-2018 23:59 Opozorilo za: Sneg/Led Stopnja: Rumena info button
Veter Od: 22-02-2018 00:00 Do: 23:59 Opozorilo za: Veter Stopnja: Rumena info button

Pogled proti Armezu več informacij Pogled proti Armezu


Lisca več informacij Lisca


Radar strel več informacij blitzortung!


opozorilo za sneg/led več informacij rain snow radar


Obiščite še:

Template documentation
and downloads

And another site



Weather Underground, zgodovina - Tekstovno

Dnevni povzetek za Januar 25, 2018 Enote:  Angleško    Metrično   Obe
« Predhodni Dan
Naslednji Dan »
Dnevni Tedenski Mesečni Letni Po meri
  Višja: Nižja: Povprečje:
Temperatura: TemperatureC °F -3.6 °F 3.6 °F
Točka rosišča: DewpointC °F -5.0 °F -0.2 °F
Vlažnost: Humidity % 52 % 78 %
Hitrost vetra: WindSpeedKMH mph 0.0 mph 3 mph
Sunki vetra: WindSpeedGustKMH mph - -
Veter:- - WSW
Zračni tlak: PressurehPa in 1018.2 in -
Padavine: 0.3 in    
Historical Graphs
 
 
Tabelarni podarki za Januar 25, 2018
Čas Temperatura Točka rosišča Zračni tlak Veter Hitrost vetra Sunki vetra Vlažnost Intenziteta padavin (urna)
TemperatureC °F DewpointC °F PressurehPa in Calm     Humidity % HourlyPrecipMM in
00:01 -2.1 °F -4.1 °F 1026.0 in West 0.3 mph 3.2 mph 86 % 0.0 in
00:06 -2.2 °F -4.1 °F 1026.0 in Calm     87 % 0.0 in
00:11 -2.2 °F -4.1 °F 1024.9 in Calm     87 % 0.0 in
00:16 -2.2 °F -4.1 °F 1024.9 in Calm     87 % 0.0 in
00:21 -2.2 °F -4.1 °F 1024.9 in Calm     87 % 0.0 in
00:26 -2.2 °F -4.1 °F 1026.0 in Calm     87 % 0.0 in
00:31 -2.2 °F -4.1 °F 1026.0 in Calm     87 % 0.0 in
00:36 -2.3 °F -4.2 °F 1026.0 in Calm     87 % 0.0 in
00:41 -2.3 °F -4.2 °F 1024.9 in Calm     87 % 0.0 in
00:46 -2.3 °F -4.2 °F 1024.9 in Calm     87 % 0.0 in
00:51 -2.3 °F -4.2 °F 1024.9 in Calm     87 % 0.0 in
00:56 -2.3 °F -4.2 °F 1024.9 in Calm     87 % 0.0 in
01:01 -2.3 °F -4.0 °F 1024.9 in Calm     88 % 0.0 in
01:06 -2.3 °F -4.0 °F 1024.9 in Calm     88 % 0.0 in
01:11 -2.3 °F -4.0 °F 1024.9 in Calm     88 % 0.0 in
01:16 -2.3 °F -4.0 °F 1024.9 in Calm     88 % 0.0 in
01:21 -2.3 °F -4.0 °F 1024.9 in Calm     88 % 0.0 in
01:26 -2.4 °F -4.1 °F 1023.9 in Calm     88 % 0.0 in
01:31 -2.5 °F -4.2 °F 1023.9 in Calm     88 % 0.0 in
01:36 -2.5 °F -4.2 °F 1023.9 in Calm     88 % 0.0 in
01:41 -2.5 °F -4.2 °F 1024.9 in Calm     88 % 0.0 in
01:46 -2.5 °F -4.2 °F 1024.9 in Calm     88 % 0.0 in
01:51 -2.6 °F -4.3 °F 1024.9 in Calm     88 % 0.0 in
01:56 -2.6 °F -4.3 °F 1023.9 in Calm     88 % 0.0 in
02:01 -2.7 °F -4.4 °F 1023.9 in Calm     88 % 0.0 in
02:06 -2.7 °F -4.4 °F 1023.9 in Calm     88 % 0.0 in
02:11 -2.7 °F -4.4 °F 1024.9 in Calm     88 % 0.0 in
02:16 -2.7 °F -4.4 °F 1024.9 in Calm     88 % 0.0 in
02:21 -2.8 °F -4.5 °F 1024.9 in Calm     88 % 0.0 in
02:26 -2.8 °F -4.5 °F 1024.9 in Calm     88 % 0.0 in
02:31 -2.8 °F -4.5 °F 1024.9 in Calm     88 % 0.0 in
02:36 -2.9 °F -4.4 °F 1024.9 in Calm     89 % 0.0 in
02:41 -2.9 °F -4.4 °F 1024.9 in Calm     89 % 0.0 in
02:46 -2.9 °F -4.4 °F 1024.9 in Calm     89 % 0.0 in
02:51 -3.0 °F -4.6 °F 1024.9 in Calm     89 % 0.0 in
02:56 -3.0 °F -4.6 °F 1024.9 in Calm     89 % 0.0 in
03:01 -3.0 °F -4.6 °F 1024.9 in Calm     89 % 0.0 in
03:06 -3.0 °F -4.6 °F 1024.9 in Calm     89 % 0.0 in
03:11 -3.0 °F -4.6 °F 1023.9 in Calm     89 % 0.0 in
03:16 -3.0 °F -4.6 °F 1023.9 in Calm     89 % 0.0 in
03:21 -3.0 °F -4.6 °F 1023.9 in Calm     89 % 0.0 in
03:26 -3.1 °F -4.7 °F 1023.9 in Calm     89 % 0.0 in
03:31 -3.1 °F -4.7 °F 1023.9 in Calm     89 % 0.0 in
03:36 -3.1 °F -4.7 °F 1023.9 in Calm     89 % 0.0 in
03:41 -3.1 °F -4.7 °F 1023.9 in Calm     89 % 0.0 in
03:46 -3.2 °F -4.8 °F 1023.9 in Calm     89 % 0.0 in
03:51 -3.2 °F -4.8 °F 1023.9 in Calm     89 % 0.0 in
03:56 -3.2 °F -4.6 °F 1023.9 in Calm     90 % 0.0 in
04:01 -3.1 °F -4.5 °F 1023.9 in Calm     90 % 0.0 in
04:06 -3.1 °F -4.5 °F 1023.9 in Calm     90 % 0.0 in
04:11 -3.1 °F -4.5 °F 1023.9 in Calm     90 % 0.0 in
04:16 -3.1 °F -4.5 °F 1023.9 in Calm     90 % 0.0 in
04:21 -3.1 °F -4.5 °F 1023.9 in Calm     90 % 0.0 in
04:26 -3.2 °F -4.6 °F 1023.9 in Calm     90 % 0.0 in
04:31 -3.2 °F -4.6 °F 1023.9 in Calm     90 % 0.0 in
04:36 -3.3 °F -4.7 °F 1023.9 in Calm     90 % 0.0 in
04:41 -3.3 °F -4.7 °F 1023.9 in Calm     90 % 0.0 in
04:46 -3.3 °F -4.7 °F 1023.9 in Calm     90 % 0.0 in
04:51 -3.3 °F -4.7 °F 1023.9 in Calm     90 % 0.0 in
04:56 -3.3 °F -4.7 °F 1023.9 in Calm     90 % 0.0 in
05:01 -3.3 °F -4.7 °F 1023.9 in Calm     90 % 0.0 in
05:06 -3.3 °F -4.7 °F 1023.9 in SW 0.6 mph 4.0 mph 90 % 0.0 in
05:11 -3.3 °F -4.7 °F 1023.9 in WSW 0.8 mph 4.0 mph 90 % 0.0 in
05:16 -3.3 °F -4.7 °F 1023.9 in NNW 0.5 mph 3.2 mph 90 % 0.0 in
05:21 -3.3 °F -4.7 °F 1023.9 in NNW 0.2 mph 3.2 mph 90 % 0.0 in
05:26 -3.4 °F -4.8 °F 1023.9 in NNW 0.2 mph 3.5 mph 90 % 0.0 in
05:31 -3.4 °F -4.8 °F 1023.9 in NNW 0.3 mph 3.5 mph 90 % 0.0 in
05:36 -3.4 °F -4.8 °F 1023.9 in NNW 0.5 mph 2.6 mph 90 % 0.0 in
05:41 -3.4 °F -4.8 °F 1022.9 in NNW 1.4 mph 3.5 mph 90 % 0.0 in
05:46 -3.5 °F -4.9 °F 1022.9 in NNW 1.6 mph 3.5 mph 90 % 0.0 in
05:51 -3.5 °F -4.9 °F 1022.9 in NNW 0.6 mph 3.2 mph 90 % 0.0 in
05:56 -3.5 °F -4.9 °F 1022.9 in NNW 0.5 mph 3.2 mph 90 % 0.0 in
06:01 -3.5 °F -4.9 °F 1022.9 in NNW 0.2 mph 2.6 mph 90 % 0.0 in
06:06 -3.5 °F -4.9 °F 1022.9 in Calm     90 % 0.0 in
06:11 -3.6 °F -5.0 °F 1022.9 in Calm     90 % 0.0 in
06:16 -3.6 °F -5.0 °F 1022.9 in Calm     90 % 0.0 in
06:21 -3.6 °F -5.0 °F 1022.9 in SW 0.8 mph 4.0 mph 90 % 0.0 in
06:26 -3.6 °F -5.0 °F 1021.9 in WSW 1.4 mph 4.3 mph 90 % 0.0 in
06:31 -3.5 °F -4.9 °F 1021.9 in NW 1.9 mph 5.0 mph 90 % 0.0 in
06:36 -3.5 °F -4.9 °F 1021.9 in NW 2.1 mph 5.0 mph 90 % 0.0 in
06:41 -3.4 °F -4.8 °F 1021.9 in NW 0.8 mph 4.3 mph 90 % 0.0 in
06:46 -3.4 °F -4.8 °F 1021.9 in Calm     90 % 0.0 in
06:51 -3.4 °F -4.8 °F 1021.9 in Calm     90 % 0.0 in
06:56 -3.4 °F -4.8 °F 1022.9 in Calm     90 % 0.0 in
07:01 -3.4 °F -4.7 °F 1022.9 in Calm   5.0 mph 91 % 0.0 in
07:06 -3.4 °F -4.7 °F 1022.9 in SE 1.0 mph 5.0 mph 91 % 0.0 in
07:11 -3.3 °F -4.6 °F 1021.9 in South 1.4 mph 5.0 mph 91 % 0.0 in
07:16 -3.2 °F -4.4 °F 1021.9 in West 1.3 mph 4.0 mph 91 % 0.0 in
07:21 -3.2 °F -4.4 °F 1021.9 in West 0.8 mph 4.0 mph 91 % 0.0 in
07:26 -3.1 °F -4.4 °F 1022.9 in SW 0.2 mph 7.9 mph 91 % 0.0 in
07:31 -2.9 °F -4.2 °F 1022.9 in SW 3.1 mph 9.7 mph 91 % 0.0 in
07:36 -2.8 °F -4.1 °F 1022.9 in SW 4.7 mph 9.7 mph 91 % 0.0 in
07:41 -2.8 °F -4.1 °F 1022.9 in WSW 1.9 mph 8.7 mph 91 % 0.0 in
07:46 -2.8 °F -4.1 °F 1022.9 in SSW 0.5 mph 4.0 mph 91 % 0.0 in
07:51 -2.6 °F -3.9 °F 1022.9 in SSE 0.3 mph 4.0 mph 91 % 0.0 in
07:56 -2.6 °F -3.9 °F 1022.9 in North 0.2 mph   91 % 0.0 in
08:01 -2.6 °F -3.9 °F 1022.9 in Calm     91 % 0.0 in
08:06 -2.5 °F -3.8 °F 1022.9 in NNW 0.2 mph 2.1 mph 91 % 0.0 in
08:11 -2.4 °F -3.7 °F 1023.9 in NNW 0.2 mph 2.1 mph 91 % 0.0 in
08:16 -2.3 °F -3.6 °F 1023.9 in Calm     91 % 0.0 in
08:21 -2.3 °F -3.6 °F 1023.9 in Calm     91 % 0.0 in
08:26 -2.2 °F -3.3 °F 1022.9 in Calm     92 % 0.0 in
08:31 -2.0 °F -3.1 °F 1022.9 in Calm   1.4 mph 92 % 0.0 in
08:36 -1.9 °F -3.0 °F 1022.9 in NW 0.2 mph 2.6 mph 92 % 0.0 in
08:41 -1.7 °F -2.8 °F 1022.9 in NW 0.2 mph 2.6 mph 92 % 0.0 in
08:46 -1.6 °F -2.7 °F 1022.9 in Calm   1.4 mph 92 % 0.0 in
08:51 -1.4 °F -2.6 °F 1022.9 in Calm     92 % 0.0 in
08:56 -1.3 °F -2.4 °F 1023.9 in Calm     92 % 0.0 in
09:01 -1.0 °F -2.1 °F 1023.9 in Calm     92 % 0.0 in
09:06 -0.8 °F -1.9 °F 1023.9 in Calm     92 % 0.0 in
09:11 -0.5 °F -1.5 °F 1022.9 in Calm     93 % 0.0 in
09:16 -0.3 °F -1.3 °F 1022.9 in Calm     93 % 0.0 in
09:21 0.0 °F -1.0 °F 1022.9 in Calm     93 % 0.0 in
09:26 0.4 °F -0.6 °F 1022.9 in Calm     93 % 0.0 in
09:31 0.6 °F -0.3 °F 1022.9 in Calm     94 % 0.0 in
09:36 0.9 °F 0.1 °F 1022.9 in Calm     94 % 0.3 in
09:41 1.5 °F 0.7 °F 1022.9 in Calm     94 % 0.3 in
09:46 1.8 °F 0.9 °F 1022.9 in South 0.2 mph 3.2 mph 94 % 0.3 in
09:51 2.3 °F 1.4 °F 1022.9 in South 0.2 mph 3.2 mph 94 % 0.3 in
09:56 2.7 °F 2.0 °F 1022.9 in East 0.3 mph 4.3 mph 95 % 0.3 in
10:01 3.0 °F 2.3 °F 1022.9 in South 1.6 mph 5.0 mph 95 % 0.3 in
10:06 3.4 °F 2.7 °F 1022.9 in SSW 2.7 mph 5.8 mph 95 % 0.3 in
10:11 4.0 °F 3.3 °F 1022.9 in SSW 1.6 mph 6.1 mph 95 % 0.3 in
10:16 4.5 °F 3.8 °F 1022.9 in WSW 2.6 mph 9.0 mph 95 % 0.3 in
10:21 4.8 °F 4.1 °F 1022.9 in WSW 4.3 mph 9.0 mph 95 % 0.3 in
10:26 5.2 °F 4.4 °F 1022.9 in SW 2.7 mph 7.9 mph 95 % 0.3 in
10:31 5.5 °F 4.8 °F 1022.9 in West 1.4 mph 6.9 mph 95 % 0.3 in
10:36 5.8 °F 5.1 °F 1022.9 in WNW 1.6 mph 9.0 mph 95 % 0.0 in
10:41 6.2 °F 5.4 °F 1021.9 in WSW 2.7 mph 9.0 mph 95 % 0.0 in
10:46 6.5 °F 5.8 °F 1021.9 in West 3.1 mph 10.1 mph 95 % 0.0 in
10:51 6.8 °F 6.1 °F 1021.9 in WNW 4.3 mph 10.1 mph 95 % 0.0 in
10:56 7.0 °F 6.3 °F 1021.9 in West 4.3 mph 14.0 mph 95 % 0.0 in
11:01 7.1 °F 6.3 °F 1021.9 in WSW 4.0 mph 14.0 mph 95 % 0.0 in
11:06 7.5 °F 6.6 °F 1021.9 in WSW 6.6 mph 13.0 mph 94 % 0.0 in
11:11 7.8 °F 6.9 °F 1021.9 in WSW 7.2 mph 13.0 mph 94 % 0.0 in
11:16 7.9 °F 6.8 °F 1021.9 in WSW 6.1 mph 11.9 mph 93 % 0.0 in
11:21 8.2 °F 7.0 °F 1021.9 in SW 6.1 mph 11.9 mph 92 % 0.0 in
11:26 8.6 °F 7.2 °F 1020.9 in WSW 7.9 mph 16.9 mph 91 % 0.0 in
11:31 8.8 °F 7.2 °F 1020.9 in WSW 8.2 mph 16.9 mph 90 % 0.0 in
11:36 9.1 °F 7.4 °F 1020.9 in SW 7.9 mph 14.0 mph 89 % 0.0 in
11:41 9.3 °F 7.4 °F 1020.9 in SW 7.6 mph 14.0 mph 88 % 0.0 in
11:46 9.4 °F 7.2 °F 1020.9 in SW 6.8 mph 13.7 mph 86 % 0.0 in
11:51 9.7 °F 7.3 °F 1020.9 in SW 7.7 mph 15.4 mph 85 % 0.0 in
11:56 9.9 °F 7.3 °F 1019.9 in SW 8.5 mph 15.4 mph 84 % 0.0 in
12:01 10.1 °F 7.2 °F 1019.9 in SW 6.8 mph 13.7 mph 82 % 0.0 in
12:06 10.2 °F 7.1 °F 1019.9 in SW 6.0 mph 15.4 mph 81 % 0.0 in
12:11 10.4 °F 6.9 °F 1020.9 in SW 7.1 mph 15.4 mph 79 % 0.0 in
12:16 10.5 °F 6.8 °F 1020.9 in SSW 9.5 mph 14.0 mph 78 % 0.0 in
12:21 10.5 °F 6.3 °F 1020.9 in SW 10.3 mph 14.8 mph 75 % 0.0 in
12:26 10.7 °F 6.3 °F 1021.9 in WSW 8.2 mph 16.3 mph 74 % 0.0 in
12:31 10.8 °F 6.2 °F 1021.9 in WSW 7.1 mph 20.9 mph 73 % 0.0 in
12:36 10.9 °F 5.8 °F 1021.9 in WSW 8.0 mph 20.9 mph 71 % 0.0 in
12:41 10.9 °F 5.7 °F 1020.9 in WSW 8.7 mph 20.1 mph 70 % 0.0 in
12:46 11.1 °F 5.4 °F 1020.9 in WSW 8.8 mph 26.7 mph 68 % 0.0 in
12:51 11.0 °F 5.1 °F 1020.9 in West 9.2 mph 26.7 mph 67 % 0.0 in
12:56 11.1 °F 4.8 °F 1021.9 in West 9.2 mph 24.5 mph 65 % 0.0 in
13:01 11.2 °F 4.6 °F 1021.9 in West 9.5 mph 28.0 mph 64 % 0.0 in
13:06 11.3 °F 4.3 °F 1021.9 in SW 8.8 mph 28.0 mph 62 % 0.0 in
13:11 11.3 °F 4.3 °F 1020.9 in SW 7.4 mph 13.0 mph 62 % 0.0 in
13:16 11.4 °F 4.2 °F 1020.9 in WSW 7.2 mph 19.5 mph 61 % 0.0 in
13:21 11.3 °F 3.6 °F 1020.9 in West 10.0 mph 24.8 mph 59 % 0.0 in
13:26 11.3 °F 3.3 °F 1019.9 in West 11.1 mph 24.8 mph 58 % 0.0 in
13:31 11.3 °F 3.1 °F 1019.9 in West 9.8 mph 24.5 mph 57 % 0.0 in
13:36 11.3 °F 2.8 °F 1019.9 in West 9.8 mph 20.9 mph 56 % 0.0 in
13:41 11.3 °F 2.8 °F 1019.9 in WSW 10.1 mph 20.9 mph 56 % 0.0 in
13:46 11.2 °F 2.5 °F 1019.9 in West 10.5 mph 19.8 mph 55 % 0.0 in
13:51 11.1 °F 2.1 °F 1019.9 in West 9.7 mph 19.5 mph 54 % 0.0 in
13:56 11.2 °F 2.2 °F 1020.9 in West 7.7 mph 19.1 mph 54 % 0.0 in
14:01 11.2 °F 2.2 °F 1020.9 in WNW 8.7 mph 19.8 mph 54 % 0.0 in
14:06 11.3 °F 2.3 °F 1020.9 in West 9.5 mph 19.8 mph 54 % 0.0 in
14:11 11.4 °F 2.4 °F 1019.9 in West 8.8 mph 17.2 mph 54 % 0.0 in
14:16 11.4 °F 2.4 °F 1019.9 in West 8.4 mph 17.2 mph 54 % 0.0 in
14:21 11.5 °F 2.5 °F 1019.9 in WSW 6.4 mph 16.6 mph 54 % 0.0 in
14:26 11.5 °F 2.5 °F 1019.9 in WSW 4.8 mph 12.6 mph 54 % 0.0 in
14:31 11.5 °F 2.5 °F 1019.9 in West 5.3 mph 18.3 mph 54 % 0.0 in
14:36 11.5 °F 2.2 °F 1019.9 in West 7.9 mph 18.3 mph 53 % 0.0 in
14:41 11.4 °F 2.2 °F 1019.9 in West 9.2 mph 17.7 mph 53 % 0.0 in
14:46 11.3 °F 2.1 °F 1019.9 in West 9.2 mph 17.7 mph 53 % 0.0 in
14:51 11.3 °F 1.8 °F 1019.9 in West 10.0 mph 21.9 mph 52 % 0.0 in
14:56 11.3 °F 1.8 °F 1019.9 in West 10.5 mph 21.9 mph 52 % 0.0 in
15:01 11.3 °F 1.8 °F 1019.9 in West 7.7 mph 16.6 mph 52 % 0.0 in
15:06 11.3 °F 1.8 °F 1019.9 in West 6.0 mph 16.3 mph 52 % 0.0 in
15:11 11.2 °F 1.7 °F 1019.9 in West 6.4 mph 14.0 mph 52 % 0.0 in
15:16 11.1 °F 1.6 °F 1019.9 in West 6.0 mph 12.6 mph 52 % 0.0 in
15:21 11.0 °F 1.5 °F 1019.9 in WNW 7.1 mph 19.1 mph 52 % 0.0 in
15:26 10.9 °F 1.7 °F 1019.9 in West 7.4 mph 19.1 mph 53 % 0.0 in
15:31 10.8 °F 1.6 °F 1019.9 in West 6.8 mph 12.2 mph 53 % 0.0 in
15:36 10.6 °F 1.4 °F 1019.9 in WNW 6.8 mph 20.1 mph 53 % 0.0 in
15:41 10.4 °F 1.2 °F 1019.9 in WNW 5.6 mph 20.1 mph 53 % 0.0 in
15:46 10.4 °F 1.2 °F 1019.9 in West 4.0 mph 11.6 mph 53 % 0.0 in
15:51 10.2 °F 1.3 °F 1019.9 in West 4.8 mph 14.0 mph 54 % 0.0 in
15:56 10.1 °F 1.2 °F 1019.9 in WNW 5.1 mph 14.0 mph 54 % 0.0 in
16:01 10.1 °F 1.2 °F 1019.9 in WSW 3.1 mph 9.7 mph 54 % 0.0 in
16:07 10.0 °F 1.4 °F 1019.9 in SW 3.5 mph 12.6 mph 55 % 0.0 in
16:12 9.9 °F 1.3 °F 1019.9 in WSW 6.0 mph 12.6 mph 55 % 0.0 in
16:17 9.7 °F 1.3 °F 1019.9 in WSW 5.6 mph 11.9 mph 56 % 0.0 in
16:22 9.6 °F 1.2 °F 1019.9 in SW 4.5 mph 9.3 mph 56 % 0.0 in
16:27 9.6 °F 1.2 °F 1019.9 in SW 4.2 mph 9.0 mph 56 % 0.0 in
16:32 9.5 °F 1.4 °F 1019.9 in WSW 5.1 mph 11.1 mph 57 % 0.0 in
16:37 9.3 °F 1.2 °F 1019.9 in West 6.4 mph 15.8 mph 57 % 0.0 in
16:42 9.2 °F 1.1 °F 1020.9 in WSW 5.8 mph 16.3 mph 57 % 0.0 in
16:47 9.1 °F 1.0 °F 1020.9 in SW 5.0 mph 16.3 mph 57 % 0.0 in
16:52 9.0 °F 1.2 °F 1020.9 in SW 4.3 mph 7.9 mph 58 % 0.0 in
16:57 8.7 °F 0.9 °F 1020.9 in SSW 4.7 mph 13.7 mph 58 % 0.0 in
17:02 8.6 °F 1.1 °F 1020.9 in SSW 6.0 mph 13.7 mph 59 % 0.0 in
17:07 8.5 °F 0.9 °F 1020.9 in WSW 5.8 mph 11.9 mph 59 % 0.0 in
17:12 8.5 °F 0.9 °F 1019.9 in SW 5.3 mph 13.0 mph 59 % 0.0 in
17:17 8.4 °F 1.1 °F 1019.9 in SSW 6.3 mph 13.0 mph 60 % 0.0 in
17:22 8.4 °F 1.1 °F 1019.9 in SSW 6.6 mph 13.0 mph 60 % 0.0 in
17:27 8.3 °F 1.2 °F 1020.9 in WSW 5.6 mph 11.6 mph 61 % 0.0 in
17:32 8.3 °F 1.2 °F 1020.9 in WSW 5.6 mph 9.7 mph 61 % 0.0 in
17:37 8.1 °F 1.0 °F 1020.9 in SW 5.8 mph 9.3 mph 61 % 0.0 in
17:42 8.0 °F 1.2 °F 1020.9 in SW 4.5 mph 8.7 mph 62 % 0.0 in
17:47 8.0 °F 1.2 °F 1020.9 in SSW 4.2 mph 8.7 mph 62 % 0.0 in
17:52 7.8 °F 1.2 °F 1020.9 in South 4.8 mph 8.7 mph 63 % 0.0 in
17:56 7.7 °F 1.1 °F 1019.9 in SSW 5.6 mph 12.2 mph 63 % 0.0 in
18:02 7.7 °F 1.1 °F 1019.9 in SW 5.6 mph 13.0 mph 63 % 0.0 in
18:07 7.6 °F 1.2 °F 1019.9 in WSW 4.7 mph 13.0 mph 64 % 0.0 in
18:12 7.6 °F 1.2 °F 1020.9 in WSW 4.3 mph 11.6 mph 64 % 0.0 in
18:17 7.6 °F 1.4 °F 1020.9 in West 4.2 mph 10.1 mph 65 % 0.0 in
18:21 7.5 °F 1.3 °F 1020.9 in West 5.8 mph 16.9 mph 65 % 0.0 in
18:27 7.6 °F 1.7 °F 1020.9 in WSW 7.2 mph 16.9 mph 66 % 0.0 in
18:32 7.6 °F 1.7 °F 1020.9 in WSW 6.9 mph 14.0 mph 66 % 0.0 in
18:37 7.6 °F 1.7 °F 1020.9 in SW 5.6 mph 13.0 mph 66 % 0.0 in
18:42 7.5 °F 1.8 °F 1020.9 in SW 4.5 mph 11.9 mph 67 % 0.0 in
18:47 7.5 °F 1.8 °F 1020.9 in WSW 4.8 mph 13.0 mph 67 % 0.0 in
18:52 7.4 °F 1.7 °F 1020.9 in SW 5.1 mph 13.0 mph 67 % 0.0 in
18:57 7.3 °F 1.6 °F 1020.9 in WSW 4.7 mph 10.1 mph 67 % 0.0 in
19:02 7.2 °F 1.7 °F 1020.9 in West 3.7 mph 10.1 mph 68 % 0.0 in
19:07 7.1 °F 1.6 °F 1020.9 in West 2.4 mph 7.9 mph 68 % 0.0 in
19:12 7.1 °F 1.6 °F 1020.9 in WSW 3.4 mph 8.7 mph 68 % 0.0 in
19:17 6.9 °F 1.6 °F 1020.9 in SSW 4.8 mph 10.8 mph 69 % 0.0 in
19:22 6.8 °F 1.5 °F 1020.9 in SW 4.5 mph 10.8 mph 69 % 0.0 in
19:27 6.7 °F 1.4 °F 1020.9 in SW 3.9 mph 7.9 mph 69 % 0.0 in
19:32 6.8 °F 1.5 °F 1020.9 in SSW 3.1 mph 7.6 mph 69 % 0.0 in
19:37 6.8 °F 1.7 °F 1020.9 in SW 3.5 mph 7.9 mph 70 % 0.0 in
19:42 6.7 °F 1.6 °F 1019.9 in SW 3.9 mph 9.0 mph 70 % 0.0 in
19:47 6.7 °F 1.6 °F 1019.9 in SW 2.7 mph 9.0 mph 70 % 0.0 in
19:52 6.7 °F 1.8 °F 1019.9 in WSW 3.4 mph 9.0 mph 71 % 0.0 in
19:57 6.8 °F 1.9 °F 1019.9 in SW 4.5 mph 9.0 mph 71 % 0.0 in
20:02 6.8 °F 1.9 °F 1019.9 in WSW 4.8 mph 9.0 mph 71 % 0.0 in
20:07 6.7 °F 2.0 °F 1019.9 in West 3.9 mph 9.0 mph 72 % 0.0 in
20:12 6.7 °F 2.0 °F 1019.9 in West 4.0 mph 7.9 mph 72 % 0.0 in
20:17 6.6 °F 1.9 °F 1019.9 in West 4.2 mph 9.7 mph 72 % 0.0 in
20:22 6.6 °F 1.9 °F 1019.9 in WSW 2.1 mph 9.7 mph 72 % 0.0 in
20:27 6.7 °F 2.0 °F 1019.9 in West 2.6 mph 12.6 mph 72 % 0.0 in
20:32 6.8 °F 2.3 °F 1019.9 in West 4.7 mph 14.0 mph 73 % 0.0 in
20:37 6.9 °F 2.4 °F 1019.9 in WSW 3.7 mph 14.0 mph 73 % 0.0 in
20:42 6.9 °F 2.4 °F 1018.8 in West 4.0 mph 10.1 mph 73 % 0.0 in
20:47 6.9 °F 2.6 °F 1018.8 in WNW 4.3 mph 10.5 mph 74 % 0.0 in
20:52 7.0 °F 2.5 °F 1018.8 in West 4.2 mph 10.5 mph 73 % 0.0 in
20:57 7.0 °F 2.7 °F 1018.8 in WSW 4.0 mph 8.7 mph 74 % 0.0 in
21:02 6.9 °F 2.6 °F 1018.8 in West 3.7 mph 10.8 mph 74 % 0.0 in
21:07 6.9 °F 2.6 °F 1018.8 in WSW 3.1 mph 10.8 mph 74 % 0.0 in
21:12 6.8 °F 2.5 °F 1018.8 in South 3.1 mph 9.7 mph 74 % 0.0 in
21:17 6.8 °F 2.5 °F 1018.8 in South 5.0 mph 9.7 mph 74 % 0.0 in
21:22 6.7 °F 2.6 °F 1018.8 in South 5.6 mph 10.1 mph 75 % 0.0 in
21:27 6.5 °F 2.4 °F 1018.8 in South 5.0 mph 10.1 mph 75 % 0.0 in
21:32 6.5 °F 2.4 °F 1018.8 in SSW 3.9 mph 6.9 mph 75 % 0.0 in
21:37 6.3 °F 2.2 °F 1018.8 in South 2.7 mph 5.8 mph 75 % 0.0 in
21:42 6.2 °F 2.1 °F 1018.8 in SSW 2.3 mph 4.0 mph 75 % 0.0 in
21:47 6.0 °F 1.9 °F 1018.8 in SSW 1.8 mph 4.3 mph 75 % 0.0 in
21:52 5.8 °F 1.7 °F 1018.8 in SW 2.6 mph 5.5 mph 75 % 0.0 in
21:57 5.7 °F 1.6 °F 1018.8 in SW 2.4 mph 5.5 mph 75 % 0.0 in
22:02 5.7 °F 1.6 °F 1018.8 in SW 1.4 mph 6.9 mph 75 % 0.0 in
22:07 5.5 °F 1.4 °F 1018.8 in West 1.9 mph 6.9 mph 75 % 0.0 in
22:12 5.2 °F 1.1 °F 1018.8 in WNW 1.1 mph 5.0 mph 75 % 0.0 in
22:17 4.9 °F 1.0 °F 1018.8 in WNW 1.0 mph 5.8 mph 76 % 0.0 in
22:22 4.6 °F 0.7 °F 1018.8 in West 0.6 mph 5.8 mph 76 % 0.0 in
22:27 4.3 °F 0.4 °F 1018.8 in Calm     76 % 0.0 in
22:32 4.1 °F 0.2 °F 1018.8 in NNW 0.6 mph 5.0 mph 76 % 0.0 in
22:37 4.0 °F 0.2 °F 1018.8 in NW 1.3 mph 5.5 mph 76 % 0.0 in
22:42 3.8 °F -0.1 °F 1018.8 in West 2.1 mph 8.7 mph 76 % 0.0 in
22:47 3.7 °F -0.2 °F 1018.8 in West 2.6 mph 11.9 mph 76 % 0.0 in
22:52 3.7 °F 0.1 °F 1018.8 in WSW 2.3 mph 11.9 mph 77 % 0.0 in
22:57 3.8 °F 0.1 °F 1018.2 in SW 2.6 mph 6.9 mph 77 % 0.0 in
23:02 4.0 °F 0.3 °F 1018.2 in WSW 2.6 mph 6.9 mph 77 % 0.0 in
23:07 3.9 °F 0.4 °F 1018.2 in West 1.6 mph 5.0 mph 78 % 0.0 in
23:12 3.9 °F 0.4 °F 1018.8 in West 0.8 mph 5.0 mph 78 % 0.0 in
23:17 3.8 °F 0.3 °F 1018.8 in SSW 0.2 mph 5.0 mph 78 % 0.0 in
23:22 3.7 °F 0.2 °F 1018.8 in WNW 0.5 mph 3.5 mph 78 % 0.0 in
23:27 3.6 °F 0.1 °F 1018.8 in NW 0.8 mph 5.0 mph 78 % 0.0 in
23:32 3.6 °F 0.3 °F 1018.8 in WNW 1.0 mph 5.0 mph 79 % 0.0 in
23:37 3.4 °F 0.1 °F 1018.8 in West 1.0 mph 4.7 mph 79 % 0.0 in
23:42 3.4 °F 0.1 °F 1018.2 in West 0.8 mph 4.7 mph 79 % 0.0 in
23:47 3.3 °F 0.0 °F 1018.2 in West 0.2 mph 3.2 mph 79 % 0.0 in
23:52 3.3 °F 0.2 °F 1018.2 in Calm     80 % 0.0 in
23:57 3.3 °F 0.2 °F 1018.8 in Calm     80 % 0.0 in
Vremenska postaja Senovo
Podatki zbrani iz Weather Underground - 3 mb

Script developed by  Jim McMurry - jmcmurry@mwt.net Adapted for the template by  Wim van der Kuil - Leuven-Template.eu

Vremenski podatki so objavljeni na:

European Weather Network

WeatherCloud

Weather Underground

AWEKAS

HAMweather, WeatherForYou, PWS Weather

MapView

Geostik

Slovenia weather network

Oprema, ki se uporablja:

Vremenski program
Cumulus

Vremenski server
Asus

Cumulus

Asus